Radiation Dose at Monitoring Post of Fukushima Daini Nuclear Power Station
Date,Time,MP-1(microSv/h),MP-2(microSv/h),MP-3(microSv/h),MP-4(microSv/h),MP-5(microSv/h),MP-6(microSv/h),MP-7(microSv/h),Wind Direction,Wind Velocity(m/s),Rain
2015/06/16,00:00,0.519,0.301,0.551,0.496,0.469,0.245,0.218,east,0.7,Yes
2015/06/16,00:10,0.527,0.303,0.550,0.495,0.467,0.247,0.219,north-northeast,1.6,Yes
2015/06/16,00:20,0.524,0.303,0.556,0.495,0.472,0.246,0.218,north-northeast,1.5,Yes
2015/06/16,00:30,0.527,0.305,0.551,0.501,0.469,0.248,0.221,north-northeast,2.8,Yes
2015/06/16,00:40,0.530,0.307,0.559,0.499,0.475,0.247,0.219,north-northeast,2.7,Yes
2015/06/16,00:50,0.523,0.306,0.555,0.501,0.471,0.249,0.221,north,1.9,Yes
2015/06/16,01:00,0.532,0.308,0.557,0.500,0.474,0.250,0.220,north,1.0,Yes
2015/06/16,01:10,0.526,0.306,0.556,0.501,0.472,0.248,0.221,west-southwest,1.1,Yes
2015/06/16,01:20,0.528,0.307,0.552,0.501,0.470,0.249,0.220,west-southwest,1.8,Yes
2015/06/16,01:30,0.528,0.305,0.559,0.498,0.474,0.248,0.222,west,0.7,Yes
2015/06/16,01:40,0.525,0.307,0.551,0.501,0.469,0.249,0.221,southeast,0.7,No
2015/06/16,01:50,0.528,0.303,0.557,0.493,0.472,0.247,0.220,south-southeast,1.6,No
2015/06/16,02:00,0.522,0.305,0.554,0.497,0.468,0.247,0.219,south-southeast,1.6,No
2015/06/16,02:10,0.528,0.305,0.552,0.496,0.469,0.247,0.219,south,1.9,No
2015/06/16,02:20,0.525,0.303,0.553,0.496,0.471,0.246,0.219,south-southeast,1.9,No
2015/06/16,02:30,0.524,0.303,0.548,0.497,0.467,0.245,0.218,south,2.5,No
2015/06/16,02:40,0.526,0.303,0.554,0.493,0.472,0.245,0.220,south,2.7,No
2015/06/16,02:50,0.521,0.305,0.549,0.499,0.465,0.247,0.218,south,3.0,No
2015/06/16,03:00,0.527,0.301,0.551,0.495,0.470,0.246,0.219,south,3.9,No
2015/06/16,03:10,0.522,0.304,0.552,0.495,0.467,0.246,0.218,south-southeast,3.9,No
2015/06/16,03:20,0.524,0.302,0.548,0.496,0.469,0.245,0.219,south,2.1,Yes
2015/06/16,03:30,0.524,0.301,0.553,0.493,0.469,0.244,0.218,south,2.2,No
2015/06/16,03:40,0.520,0.303,0.548,0.497,0.466,0.246,0.218,south-southeast,2.2,Yes
2015/06/16,03:50,0.527,0.302,0.552,0.492,0.473,0.244,0.218,south-southeast,1.0,No
2015/06/16,04:00,0.521,0.303,0.550,0.498,0.465,0.246,0.218,-,CALM,No
2015/06/16,04:10,0.523,0.300,0.547,0.494,0.472,0.246,0.219,west-southwest,1.5,No
2015/06/16,04:20,0.523,0.305,0.555,0.495,0.469,0.245,0.218,southwest,1.8,No
2015/06/16,04:30,0.521,0.302,0.548,0.496,0.466,0.246,0.218,south-southwest,0.5,No
2015/06/16,04:40,0.527,0.303,0.551,0.491,0.470,0.245,0.218,south-southwest,0.8,No
2015/06/16,04:50,0.523,0.303,0.551,0.498,0.465,0.246,0.219,south,2.3,No
2015/06/16,05:00,0.525,0.301,0.550,0.491,0.472,0.246,0.218,south,2.0,No
2015/06/16,05:10,0.525,0.305,0.555,0.495,0.467,0.247,0.219,south,1.5,No
2015/06/16,05:20,0.521,0.301,0.548,0.495,0.470,0.246,0.218,south-southwest,2.3,No
2015/06/16,05:30,0.528,0.304,0.555,0.492,0.468,0.246,0.219,south-southwest,1.7,No
2015/06/16,05:40,0.519,0.303,0.551,0.496,0.467,0.245,0.218,south,1.4,No
2015/06/16,05:50,0.526,0.301,0.549,0.492,0.471,0.244,0.218,south-southeast,0.7,No
2015/06/16,06:00,0.524,0.302,0.552,0.497,0.465,0.245,0.219,-,CALM,No
2015/06/16,06:10,0.521,0.301,0.548,0.493,0.471,0.245,0.218,-,CALM,No
2015/06/16,06:20,0.527,0.304,0.554,0.495,0.466,0.245,0.220,north-northeast,0.5,No
2015/06/16,06:30,0.520,0.301,0.550,0.496,0.466,0.246,0.217,north,1.3,No
2015/06/16,06:40,0.526,0.303,0.550,0.491,0.470,0.245,0.219,north-northeast,1.8,No
2015/06/16,06:50,0.525,0.303,0.555,0.496,0.464,0.246,0.218,north,1.3,No
2015/06/16,07:00,0.518,0.300,0.546,0.493,0.471,0.244,0.216,north,0.7,No
2015/06/16,07:10,0.527,0.301,0.552,0.491,0.469,0.244,0.219,north-northwest,1.4,No
2015/06/16,07:20,0.522,0.303,0.552,0.497,0.464,0.246,0.218,north-northwest,1.3,No
2015/06/16,07:30,0.519,0.302,0.548,0.495,0.468,0.244,0.218,north,1.3,No
2015/06/16,07:40,0.527,0.299,0.545,0.489,0.471,0.245,0.218,north,1.4,No
2015/06/16,07:50,0.523,0.301,0.553,0.491,0.467,0.245,0.217,north,0.7,No
2015/06/16,08:00,0.521,0.303,0.549,0.496,0.464,0.244,0.216,north,1.0,No
2015/06/16,08:10,0.526,0.302,0.545,0.494,0.464,0.246,0.218,north-northeast,1.4,No
2015/06/16,08:20,0.523,0.299,0.543,0.489,0.471,0.244,0.217,northeast,1.3,No
2015/06/16,08:30,0.520,0.298,0.550,0.487,0.466,0.245,0.217,northeast,1.3,No
2015/06/16,08:40,0.526,0.301,0.553,0.487,0.465,0.244,0.217,northeast,1.2,No
2015/06/16,08:50,0.523,0.303,0.549,0.489,0.464,0.244,0.217,east,0.5,No
2015/06/16,09:00,0.519,0.302,0.546,0.497,0.464,0.246,0.216,east-northeast,1.1,No
2015/06/16,09:10,0.518,0.301,0.544,0.496,0.463,0.245,0.218,east-northeast,1.1,No
2015/06/16,09:20,0.522,0.300,0.544,0.494,0.468,0.244,0.218,northeast,0.9,No
2015/06/16,09:30,0.527,0.299,0.554,0.492,0.471,0.245,0.217,-,CALM,No
2015/06/16,09:40,0.524,0.300,0.551,0.490,0.469,0.246,0.217,-,CALM,No
2015/06/16,09:50,0.517,0.300,0.549,0.489,0.467,0.248,0.217,-,CALM,No
2015/06/16,10:00,0.517,0.304,0.545,0.489,0.466,0.246,0.216,east-southeast,1.0,No
2015/06/16,10:10,0.525,0.303,0.549,0.491,0.465,0.243,0.219,-,CALM,No
2015/06/16,10:20,0.527,0.303,0.553,0.496,0.465,0.244,0.218,southeast,0.7,No
2015/06/16,10:30,0.523,0.300,0.551,0.499,0.469,0.247,0.217,east,1.6,No
2015/06/16,10:40,0.518,0.300,0.546,0.496,0.473,0.245,0.219,east,0.6,No
2015/06/16,10:50,0.530,0.305,0.551,0.491,0.470,0.244,0.219,northeast,1.6,No
2015/06/16,11:00,0.528,0.303,0.555,0.498,0.467,0.246,0.217,east-northeast,1.4,No
2015/06/16,11:10,0.522,0.302,0.550,0.497,0.466,0.245,0.218,east-northeast,1.2,No
2015/06/16,11:20,0.523,0.301,0.544,0.494,0.467,0.245,0.220,northeast,1.3,No
2015/06/16,11:30,0.526,0.306,0.550,0.492,0.468,0.244,0.219,northeast,2.5,No
2015/06/16,11:40,0.523,0.304,0.557,0.497,0.473,0.246,0.217,northeast,2.2,No
2015/06/16,11:50,0.520,0.302,0.551,0.499,0.471,0.246,0.217,north-northeast,2.0,No
2015/06/16,12:00,0.530,0.302,0.547,0.495,0.468,0.246,0.219,north-northeast,2.4,No
2015/06/16,12:10,0.525,0.304,0.552,0.492,0.467,0.245,0.218,north-northeast,2.3,No
2015/06/16,12:20,0.519,0.304,0.556,0.498,0.465,0.245,0.216,northeast,2.2,No
2015/06/16,12:30,0.527,0.301,0.551,0.500,0.474,0.245,0.218,north-northeast,2.3,No
2015/06/16,12:40,0.525,0.302,0.548,0.494,0.472,0.246,0.221,north-northeast,1.3,No
2015/06/16,12:50,0.521,0.305,0.553,0.491,0.469,0.245,0.220,north-northeast,2.8,No
2015/06/16,13:00,0.525,0.302,0.554,0.495,0.466,0.246,0.216,north-northeast,2.6,No
2015/06/16,13:10,0.526,0.301,0.550,0.498,0.465,0.246,0.217,northeast,2.1,No
2015/06/16,13:20,0.521,0.303,0.546,0.493,0.467,0.246,0.220,northeast,2.7,No
2015/06/16,13:30,0.526,0.304,0.553,0.491,0.473,0.245,0.219,east-northeast,1.9,No
2015/06/16,13:40,0.525,0.302,0.555,0.498,0.469,0.245,0.217,northeast,1.2,No
2015/06/16,13:50,0.520,0.300,0.551,0.498,0.465,0.245,0.220,northeast,1.0,No
2015/06/16,14:00,0.524,0.304,0.547,0.493,0.465,0.245,0.219,east-northeast,0.7,No
2015/06/16,14:10,0.528,0.303,0.556,0.491,0.469,0.245,0.216,-,CALM,No
2015/06/16,14:20,0.522,0.301,0.554,0.494,0.471,0.244,0.217,east,1.3,No
2015/06/16,14:30,0.525,0.301,0.545,0.500,0.467,0.245,0.219,east-northeast,1.0,No
2015/06/16,14:40,0.527,0.304,0.550,0.496,0.465,0.246,0.218,northeast,1.2,No
2015/06/16,14:50,0.521,0.301,0.553,0.493,0.467,0.246,0.216,north-northeast,2.0,No
2015/06/16,15:00,0.529,0.302,0.551,0.499,0.471,0.245,0.218,northeast,3.0,No
2015/06/16,15:10,0.525,0.304,0.548,0.496,0.469,0.246,0.220,northeast,2.8,No
2015/06/16,15:20,0.524,0.302,0.556,0.493,0.465,0.246,0.217,north-northeast,3.1,No
2015/06/16,15:30,0.528,0.304,0.553,0.499,0.475,0.244,0.219,north-northeast,2.8,No
2015/06/16,15:40,0.521,0.303,0.547,0.497,0.472,0.246,0.219,north,2.7,No
2015/06/16,15:50,0.527,0.302,0.557,0.493,0.468,0.246,0.218,north,2.1,No
2015/06/16,16:00,0.525,0.304,0.552,0.499,0.472,0.245,0.219,north-northeast,1.2,No
2015/06/16,16:10,0.520,0.303,0.549,0.497,0.472,0.245,0.218,north-northeast,1.6,No
2015/06/16,16:20,0.527,0.302,0.555,0.492,0.467,0.246,0.217,north,1.4,No
2015/06/16,16:30,0.522,0.304,0.552,0.497,0.471,0.245,0.219,north,1.3,No
2015/06/16,16:40,0.524,0.302,0.549,0.498,0.470,0.246,0.217,north-northeast,1.4,No
2015/06/16,16:50,0.526,0.304,0.554,0.493,0.468,0.245,0.218,north-northeast,2.3,No
2015/06/16,17:00,0.521,0.304,0.551,0.499,0.473,0.245,0.219,north-northeast,3.1,No
2015/06/16,17:10,0.526,0.300,0.551,0.496,0.472,0.246,0.218,north,3.4,No
2015/06/16,17:20,0.523,0.304,0.556,0.495,0.467,0.245,0.219,north,4.1,No
2015/06/16,17:30,0.524,0.301,0.549,0.498,0.473,0.246,0.218,north,4.4,No
2015/06/16,17:40,0.525,0.303,0.554,0.494,0.469,0.245,0.219,north,4.6,No
2015/06/16,17:50,0.522,0.303,0.553,0.497,0.469,0.244,0.220,north,3.4,No
2015/06/16,18:00,0.530,0.300,0.549,0.499,0.471,0.246,0.217,north,3.5,No
2015/06/16,18:10,0.521,0.304,0.555,0.493,0.467,0.245,0.220,north,4.0,No
2015/06/16,18:20,0.525,0.303,0.553,0.498,0.471,0.245,0.218,north,4.2,No
2015/06/16,18:30,0.527,0.303,0.547,0.498,0.471,0.246,0.219,north,4.2,No
2015/06/16,18:40,0.522,0.303,0.556,0.493,0.466,0.245,0.220,north,4.2,No
2015/06/16,18:50,0.528,0.300,0.550,0.499,0.472,0.246,0.218,north,3.1,No
2015/06/16,19:00,0.524,0.304,0.551,0.494,0.469,0.245,0.220,north,4.3,No
2015/06/16,19:10,0.526,0.303,0.556,0.496,0.468,0.246,0.219,north,4.2,No
2015/06/16,19:20,0.525,0.303,0.550,0.497,0.472,0.246,0.219,north,3.8,No
2015/06/16,19:30,0.523,0.305,0.554,0.494,0.466,0.245,0.218,north,2.9,No
2015/06/16,19:40,0.527,0.302,0.553,0.498,0.472,0.247,0.217,north,3.1,No
2015/06/16,19:50,0.521,0.304,0.549,0.497,0.470,0.245,0.220,north,4.1,No
2015/06/16,20:00,0.527,0.302,0.554,0.493,0.467,0.246,0.218,north,4.2,No
2015/06/16,20:10,0.525,0.304,0.552,0.498,0.472,0.245,0.218,north,3.9,No
2015/06/16,20:20,0.524,0.304,0.550,0.495,0.468,0.244,0.219,north,4.0,No
2015/06/16,20:30,0.528,0.300,0.556,0.495,0.469,0.245,0.218,north,3.6,No
2015/06/16,20:40,0.522,0.304,0.551,0.499,0.471,0.246,0.218,north,3.4,No
2015/06/16,20:50,0.527,0.302,0.556,0.492,0.466,0.246,0.217,north,4.2,No
2015/06/16,21:00,0.525,0.305,0.553,0.497,0.473,0.245,0.219,north-northwest,1.9,No
2015/06/16,21:10,0.524,0.303,0.548,0.495,0.468,0.246,0.218,north,2.2,No
2015/06/16,21:20,0.528,0.302,0.554,0.494,0.471,0.245,0.218,north,2.8,No
2015/06/16,21:30,0.520,0.305,0.551,0.499,0.470,0.245,0.220,north,3.1,No
2015/06/16,21:40,0.526,0.301,0.553,0.493,0.467,0.247,0.218,north-northwest,2.8,No
2015/06/16,21:50,0.525,0.305,0.554,0.499,0.474,0.246,0.220,north,3.6,Yes
2015/06/16,22:00,0.523,0.302,0.549,0.496,0.467,0.246,0.218,north-northwest,3.9,Yes
2015/06/16,22:10,0.525,0.303,0.556,0.492,0.471,0.247,0.219,north-northwest,3.3,No
2015/06/16,22:20,0.522,0.303,0.550,0.499,0.469,0.245,0.218,north-northwest,3.1,No
2015/06/16,22:30,0.527,0.302,0.554,0.495,0.468,0.247,0.218,north,3.6,No
2015/06/16,22:40,0.524,0.303,0.554,0.500,0.473,0.246,0.219,north-northwest,4.3,No
2015/06/16,22:50,0.523,0.302,0.550,0.498,0.467,0.246,0.218,north-northwest,4.1,No
2015/06/16,23:00,0.529,0.303,0.556,0.494,0.472,0.246,0.219,north-northwest,4.1,No
2015/06/16,23:10,0.521,0.303,0.550,0.499,0.467,0.245,0.218,north-northwest,4.7,No
2015/06/16,23:20,0.528,0.302,0.553,0.495,0.470,0.247,0.219,north-northwest,5.3,No
2015/06/16,23:30,0.524,0.303,0.555,0.497,0.470,0.245,0.219,northwest,5.4,Yes
2015/06/16,23:40,0.523,0.302,0.549,0.496,0.467,0.246,0.218,north-northwest,5.7,No
2015/06/16,23:50,0.529,0.304,0.555,0.493,0.473,0.246,0.219,north-northwest,5.2,Yes
